Weather in Polovinka

Russia / Khanty-Mansi Autonomous Okrug — Yugra     60°02′03″N   65°12′03″E
temp.,
°C
wind,
m/s
gust,
m/s
humid.,
%
clouds,
%
prec.,
mm/h
press.,
hPa
HPBL,
m
17 may, tue
tue1723:00+11ene11638 0.0 99610
02:00+9wsw11735 0.0 99510
05:00+9nw227828 0.0 99524
08:00+15n235975 0.0 995401
11:00+17nnw234994 0.0 996478
14:00+20nw343112 0.0 9962492
17:00+20wnw433445 0.0 9972202
20:00+16w2355100 0.0 99858
18 may, wed
wed1823:00+13wsw2363100 0.0 99942
02:00+10sw3388100 0.7 100063
05:00+9sw259365 1.3 1001127
08:00+14ssw367311 0.0 1001475
11:00+17sw46542 1.1 10011531
14:00+18ssw3644100 0.3 10001885
17:00+18s2448100 0.3 10001485
20:00+12w118393 3.0 100083
19 may, thu
thu1923:00+10s008938 3.1 100010
02:00+9e119273 0.0 99910
05:00+9e119155 0.0 99715
08:00+13ese1272100 0.0 997332
11:00+17ssw1351100 0.9 9961276
14:00+16wsw4458100 1.4 9961398
17:00+13wsw6668100 2.1 9971009
20:00+9w51179100 0.0 998732
20 may, fri
fri2023:00+7w5128275 0.0 999825
02:00+6wsw5118597 0.0 999796
05:00+6wsw51084100 0.0 1000894
08:00+7wsw6106687 0.1 10001158
11:00+11wsw6104679 0.1 10011980
14:00+12w694292 0.0 10012361
17:00+11wsw584691 0.2 10011860
20:00+9wsw375610 0.1 1001707
21 may, sat
sat2123:00+5w22805 0.1 100132
02:00+3w23955 0.0 100163
05:00+2wsw25935 0.0 1001174
08:00+7wsw246830 0.0 1001734
11:00+11sw354485 0.1 10002059
14:00+13w473861 0.0 10002157
17:00+13wnw3439100 0.0 10001570
20:00+9nnw4756100 0.0 1001417